Location: Kellogg
(38.0159°N, 90.0546°W)
Time: 23:18:27
(UTC+00:00)

deb Explorer IX - Visible Passes

Search period start: 11 September 2024 00:00
Search period end: 21 September 2024 00:00
Orbit: 505 x 849 km, 38.7° (Epoch: 11 September)

Date Brightness Start Highest point End Pass type
(mag) Time Alt. Az. Time Alt. Az. Time Alt. Az.
11 Sep ? 01:40:23 10° S 01:43:17 18° SSE 01:43:17 18° SSE visible
12 Sep ? 02:14:21 10° SW 02:18:05 31° S 02:18:05 31° S visible
13 Sep ? 01:07:20 10° SSW 01:11:51 23° SE 01:14:19 18° ESE visible
13 Sep ? 02:49:26 10° WSW 02:52:37 32° SW 02:52:37 32° SW visible
14 Sep ? 01:41:37 10° SW 01:47:11 44° SSE 01:48:37 37° ESE visible
14 Sep ? 03:25:01 10° WSW 03:26:54 21° WSW 03:26:54 21° WSW visible
15 Sep ? 00:34:13 10° SSW 00:39:09 28° SSE 00:44:06 10° E visible
15 Sep ? 02:16:46 10° WSW 02:22:39 71° SSE 02:22:40 71° SSE visible
15 Sep ? 04:00:44 10° W 04:00:56 11° W 04:00:56 11° W visible
16 Sep ? 01:08:43 10° SW 01:14:23 51° SSE 01:18:15 20° E visible
16 Sep ? 02:52:16 10° W 02:56:30 49° W 02:56:30 49° W visible
17 Sep ? 01:43:52 10° WSW 01:49:45 79° SSE 01:51:55 41° E visible
17 Sep ? 03:27:51 10° W 03:30:09 24° W 03:30:09 24° W visible
18 Sep ? 00:35:37 10° WSW 00:41:18 59° SSE 00:47:07 10° E visible
18 Sep ? 02:19:17 10° W 02:25:13 85° N 02:25:24 83° NE visible
18 Sep ? 04:03:21 10° W 04:03:37 11° W 04:03:37 11° W visible
19 Sep ? 01:10:44 10° WSW 01:16:35 85° SSE 01:20:32 22° E visible
19 Sep ? 02:54:43 10° W 02:58:45 45° W 02:58:45 45° W visible
20 Sep ? 01:46:03 10° W 01:51:56 83° N 01:53:45 46° E visible
20 Sep ? 03:30:02 10° W 03:31:58 22° W 03:31:58 22° W visible
